Weather History for Cleveland Burke, OH

Change the Weather History Date:

Tuesday, January 16, 2007

  Actual Average Record
Temperature  
Mean Temperature 28 °F -  
Max Temperature 33 °F 30 °F 46 °F (2012)
Min Temperature 23 °F 20 °F -9 °F (2009)
Degree Days  
Heating Degree Days 37    
Moisture  
Dew Point 22 °F    
Average Humidity 77    
Maximum Humidity 87    
Minimum Humidity 55    
Precipitation  
Precipitation 0.04 in - - ()
Sea Level Pressure  
Sea Level Pressure 30.27 in    
Wind  
Wind Speed 15 mph (NNW)    
Max Wind Speed 23 mph    
Max Gust Speed 28 mph    
Visibility 3 miles    
Events Fog , Snow    
Averages and records for this station are not official NWS values.
T = Trace of Precipitation, MM = Missing Value Source: NWS Daily Summary

Daily Weather History Graph

Daily Weather History Graph

Search for Another Location

Airport:

Trip Planner

Search our weather history database for the weather conditions in past years. The results will help you decide how hot, cold, wet, or windy it might be!

Date:

Astronomy

Jan. 16, 2007 Rise Set
Actual Time 7:50 AM EST 5:22 PM EST
Civil Twilight 7:20 AM EST 5:53 PM EST
Nautical Twilight 6:45 AM EST 6:27 PM EST
Astronomical Twilight 6:12 AM EST 7:00 PM EST
Moon 6:02 AM EST (1/16) 2:31 PM EST (1/16)
Length of Visible Light 10h 33m
Length of Day
9h 32m
Waning Crescent, 7% of the Moon is Illuminated
Jan 16
Waning Crescent
Jan 18
New
Jan 25
First Quarter
Feb 2
Full
Feb 10
Last Quarter

Hourly Weather History & Observations

Time (EST) Temp. Windchill Dew Point Humidity Pressure Visibility Wind Dir Wind Speed Gust Speed Precip Events Conditions
12:53 AM 33.1 °F 23.0 °F 27.0 °F 78% 30.04 in 9.0 mi WNW 15.0 mph - 0.00 in Snow Light Snow
1:53 AM 33.1 °F 24.4 °F 28.0 °F 82% 30.05 in 6.0 mi NNW 11.5 mph - 0.00 in Snow Light Snow
2:31 AM 32.0 °F 24.8 °F 28.4 °F 87% 30.05 in 1.8 mi NW 8.1 mph - 0.00 in Snow Light Snow
2:53 AM 32.0 °F 23.6 °F 28.0 °F 85% 30.08 in 1.2 mi NNW 10.4 mph - 0.01 in Snow Light Snow
3:03 AM 32.0 °F 23.6 °F 28.4 °F 87% 30.07 in 3.0 mi NNW 10.4 mph - 0.00 in Snow Light Snow
3:13 AM 32.0 °F 24.2 °F 28.4 °F 87% 30.07 in 2.0 mi NNW 9.2 mph - 0.00 in Snow Light Snow
3:20 AM 32.0 °F 23.6 °F 28.4 °F 87% 30.07 in 1.0 mi NNW 10.4 mph - 0.01 in Snow Light Snow
3:29 AM 32.0 °F 23.6 °F 28.4 °F 87% 30.07 in 3.0 mi North 10.4 mph - 0.02 in Snow Light Snow
3:35 AM 30.2 °F 20.2 °F 26.6 °F 86% 30.08 in 2.5 mi North 12.7 mph - 0.02 in Snow Light Snow
3:44 AM 30.2 °F 20.2 °F 26.6 °F 86% 30.08 in 1.2 mi North 12.7 mph - 0.02 in Snow Light Snow
3:53 AM 30.9 °F 22.2 °F 27.0 °F 85% 30.11 in 2.5 mi North 10.4 mph - 0.03 in Snow Light Snow
4:53 AM 32.0 °F 23.6 °F 27.0 °F 82% 30.12 in 2.0 mi North 10.4 mph - 0.00 in Snow Light Snow
4:55 AM 32.0 °F 23.0 °F 26.6 °F 80% 30.09 in 1.8 mi North 11.5 mph - 0.00 in Snow Light Snow
5:02 AM 30.2 °F 20.8 °F 26.6 °F 86% 30.10 in 1.8 mi NNW 11.5 mph - 0.00 in Snow Light Snow
5:36 AM 30.2 °F 19.3 °F 24.8 °F 80% 30.12 in 5.0 mi NW 15.0 mph - 0.00 in Snow Light Snow
5:53 AM 30.9 °F 19.8 °F 25.0 °F 79% 30.14 in 5.0 mi NW 16.1 mph - 0.00 in Snow Light Snow
6:28 AM 30.2 °F 19.3 °F 24.8 °F 80% 30.15 in 2.0 mi NW 15.0 mph - 0.00 in Snow Light Snow
6:35 AM 30.2 °F 19.3 °F 24.8 °F 80% 30.16 in 1.8 mi NW 15.0 mph - 0.00 in Snow Light Snow
6:53 AM 30.0 °F 19.5 °F 25.0 °F 82% 30.18 in 2.0 mi NW 13.8 mph - 0.00 in Snow Light Snow
7:16 AM 30.2 °F 18.9 °F 24.8 °F 80% 30.17 in 1.0 mi NNW 16.1 mph - 0.00 in Snow Light Snow
7:27 AM 30.2 °F 18.5 °F 24.8 °F 80% 30.17 in 3.0 mi NNW 17.3 mph - 0.00 in Snow Light Snow
7:53 AM 30.0 °F 19.5 °F 23.0 °F 75% 30.21 in 7.0 mi NNW 13.8 mph - 0.00 in   Overcast
8:23 AM 28.4 °F 17.0 °F 23.0 °F 80% 30.20 in 2.5 mi NNW 15.0 mph - 0.00 in Snow Light Snow
8:31 AM 28.4 °F 17.5 °F 23.0 °F 80% 30.20 in 1.0 mi NNW 13.8 mph - 0.00 in Snow Light Snow
8:44 AM 28.4 °F 17.5 °F 24.8 °F 86% 30.21 in 0.8 mi NNW 13.8 mph - 0.00 in Snow Light Snow
8:53 AM 28.0 °F 17.5 °F 23.0 °F 81% 30.24 in 0.8 mi NW 12.7 mph - 0.00 in Snow Light Snow
9:17 AM 28.4 °F 15.8 °F 24.8 °F 86% 30.23 in 0.2 mi NNW 18.4 mph - 0.00 in Fog , Snow Snow
9:34 AM 28.4 °F 16.2 °F 24.8 °F 86% 30.23 in 1.0 mi NNW 17.3 mph - 0.00 in Snow Light Snow
9:37 AM 28.4 °F 15.4 °F 24.8 °F 86% 30.24 in 0.8 mi NNW 19.6 mph - 0.00 in Snow Light Snow
9:53 AM 28.0 °F 14.9 °F 24.1 °F 85% 30.27 in 0.5 mi NW 19.6 mph - 0.00 in Fog , Snow Snow
10:03 AM 28.4 °F 15.4 °F 23.0 °F 80% 30.25 in 0.2 mi NW 19.6 mph - 0.00 in Snow Heavy Snow
10:39 AM 28.4 °F 15.4 °F 23.0 °F 80% 30.26 in 2.0 mi NW 19.6 mph - 0.00 in Snow Light Snow
10:42 AM 28.4 °F 15.4 °F 23.0 °F 80% 30.26 in 3.0 mi NW 19.6 mph - 0.00 in Snow Light Snow
10:53 AM 28.0 °F 15.3 °F 23.0 °F 81% 30.30 in 0.8 mi NW 18.4 mph - 0.00 in Snow Light Snow
11:00 AM 28.4 °F 15.8 °F 23.0 °F 80% 30.27 in 1.2 mi NNW 18.4 mph - 0.00 in Snow Light Snow
11:05 AM 28.4 °F 15.8 °F 23.0 °F 80% 30.27 in 3.0 mi NW 18.4 mph - 0.00 in Snow Light Snow
11:21 AM 28.4 °F 15.1 °F 21.2 °F 74% 30.29 in 1.5 mi NW 20.7 mph - 0.00 in Snow Light Snow
11:39 AM 26.6 °F 13.4 °F 21.2 °F 80% 30.28 in 2.5 mi NNW 18.4 mph - 0.00 in Snow Light Snow
11:53 AM 27.0 °F 13.5 °F 21.0 °F 78% 30.31 in 3.0 mi NNW 19.6 mph - 0.00 in Snow Light Snow
12:04 PM 26.6 °F 14.3 °F 21.2 °F 80% 30.28 in 1.8 mi NNW 16.1 mph 25.3 mph 0.00 in Snow Light Snow
12:16 PM 28.4 °F 15.4 °F 21.2 °F 74% 30.29 in 3.0 mi NNW 19.6 mph - 0.00 in Snow Light Snow
12:53 PM 28.0 °F 15.7 °F 19.9 °F 72% 30.32 in 6.0 mi NNW 17.3 mph - 0.00 in Snow Light Snow
1:14 PM 28.4 °F 15.8 °F 19.4 °F 69% 30.31 in 9.0 mi NNW 18.4 mph - 0.00 in   Overcast
1:20 PM 26.6 °F 13.1 °F 19.4 °F 74% 30.31 in 2.5 mi NNW 19.6 mph - 0.00 in Snow Light Snow
1:27 PM 26.6 °F 13.4 °F 19.4 °F 74% 30.31 in 1.0 mi NNW 18.4 mph - 0.00 in Snow Light Snow
1:33 PM 26.6 °F 12.0 °F 19.4 °F 74% 30.31 in 3.0 mi NW 23.0 mph - 0.00 in Snow Light Snow
1:41 PM 26.6 °F 12.0 °F 19.4 °F 74% 30.32 in 0.8 mi NNW 23.0 mph - 0.00 in Snow Light Snow
1:53 PM 26.1 °F 12.3 °F 19.9 °F 78% 30.34 in 0.5 mi NW 19.6 mph - 0.00 in Snow Snow
2:01 PM 26.6 °F 12.4 °F 19.4 °F 74% 30.32 in 1.2 mi NNW 21.9 mph 27.6 mph 0.00 in Snow Light Snow
2:29 PM 26.6 °F 12.4 °F 19.4 °F 74% 30.33 in 3.0 mi NNW 21.9 mph - 0.00 in Snow Light Snow
2:41 PM 26.6 °F 12.7 °F 19.4 °F 74% 30.34 in 1.2 mi NNW 20.7 mph - 0.00 in Snow Light Snow
2:53 PM 26.1 °F 12.0 °F 18.0 °F 71% 30.36 in 1.2 mi NNW 20.7 mph 26.5 mph 0.00 in Snow Light Snow
3:06 PM 24.8 °F 11.1 °F 19.4 °F 80% 30.35 in 0.5 mi NNW 18.4 mph - 0.00 in Snow Snow
3:13 PM 26.6 °F 13.4 °F 19.4 °F 74% 30.35 in 1.2 mi NNW 18.4 mph 24.2 mph 0.00 in Snow Light Snow
3:53 PM 25.0 °F 10.9 °F 19.0 °F 78% 30.40 in 0.5 mi NNW 19.6 mph 25.3 mph 0.00 in Snow Snow
3:58 PM 24.8 °F 10.7 °F 19.4 °F 80% 30.38 in 0.2 mi NNW 19.6 mph 25.3 mph 0.00 in Snow Heavy Snow
4:14 PM 24.8 °F 10.3 °F 19.4 °F 80% 30.38 in 0.8 mi NNW 20.7 mph 24.2 mph 0.00 in Snow Light Snow
4:32 PM 24.8 °F 11.1 °F 19.4 °F 80% 30.39 in 2.0 mi NNW 18.4 mph 24.2 mph 0.00 in Snow Light Snow
4:41 PM 24.8 °F 10.3 °F 17.6 °F 74% 30.40 in 5.0 mi NNW 20.7 mph - 0.00 in Snow Light Snow
4:53 PM 25.0 °F 10.9 °F 17.1 °F 72% 30.44 in 4.0 mi NNW 19.6 mph - 0.00 in Snow Light Snow
5:19 PM 24.8 °F 11.5 °F 15.8 °F 69% 30.43 in 9.0 mi NNW 17.3 mph - 0.00 in Snow Light Snow
5:53 PM 24.1 °F 10.1 °F 12.9 °F 62% 30.48 in 10.0 mi NNW 18.4 mph - 0.00 in   Mostly Cloudy
6:53 PM 24.1 °F 11.5 °F 10.9 °F 57% 30.52 in 10.0 mi NNW 15.0 mph - N/A   Scattered Clouds
7:53 PM 23.0 °F 8.0 °F 10.0 °F 58% 30.56 in 10.0 mi NNW 20.7 mph 26.5 mph N/A   Scattered Clouds
8:53 PM 23.0 °F 8.7 °F 12.0 °F 63% 30.58 in 10.0 mi NW 18.4 mph - N/A   Overcast
9:53 PM 23.0 °F 9.2 °F 10.0 °F 58% 30.60 in 10.0 mi NNW 17.3 mph - N/A   Overcast
10:53 PM 24.1 °F 12.0 °F 10.0 °F 55% 30.61 in 10.0 mi NW 13.8 mph - N/A   Overcast
11:53 PM 23.0 °F 9.6 °F 9.0 °F 55% 30.63 in 10.0 mi NW 16.1 mph - N/A   Overcast